This is the latest recevied weather packets stored in our database for station/object WX1NWA. If no packets are shown the sender has not sent any weather packets the latest 10 day(s).
| Time | Temp. | Humidity | Pressure | Rain* | Wind** | Luminosity | Snow |
|---|---|---|---|---|---|---|---|
| 1777202167 | 15.56° C | 82% | 1013.5 hPa | 0 mm | - | 0 W/m² | - |
| 1777201863 | 15.56° C | 82% | 1013.6 hPa | 0 mm | - | 0 W/m² | - |
| 1777201560 | 15.56° C | 83% | 1013.4 hPa | 0 mm | - | 0 W/m² | - |
| 1777201256 | 15.56° C | 83% | 1013.6 hPa | 0 mm | - | 0 W/m² | - |
| 1777200951 | 15.56° C | 84% | 1013.4 hPa | 0 mm | - | 0 W/m² | - |
| 1777200649 | 15.56° C | 82% | 1013.7 hPa | 0 mm | - | 0 W/m² | - |
| 1777200347 | 15.56° C | 82% | 1013.4 hPa | 0 mm | - | 0 W/m² | - |
| 1777200044 | 15.56° C | 83% | 1013.5 hPa | 0 mm | - | 0 W/m² | - |
| 1777199739 | 15.56° C | 84% | 1013.3 hPa | 0 mm | - | 0 W/m² | - |
| 1777199435 | 15.56° C | 85% | 1013.5 hPa | 0 mm | - | 0 W/m² | - |
| 1777199130 | 15° C | 87% | 1013.2 hPa | 0 mm | - | 0 W/m² | - |
| 1777198825 | 15° C | 87% | 1013.2 hPa | 0 mm | - | 0 W/m² | - |
| 1777198522 | 15° C | 87% | 1013 hPa | 0 mm | - | 0 W/m² | - |
| 1777198220 | 15° C | 90% | 1013 hPa | 0 mm | - | 0 W/m² | - |
| 1777197915 | 15° C | 91% | 1012.8 hPa | 0 mm | - | 0 W/m² | - |
| 1777197610 | 15° C | 90% | 1012.8 hPa | 0 mm | - | 0 W/m² | - |
| 1777197306 | 15° C | 90% | 1013.1 hPa | 0 mm | - | 0 W/m² | - |
| 1777197003 | 15° C | 90% | 1013 hPa | 0 mm | - | 0 W/m² | - |
| 1777196699 | 15° C | 90% | 1012.7 hPa | 0 mm | - | 0 W/m² | - |
| 1777196397 | 15° C | 90% | 1012.8 hPa | 0 mm | - | 0 W/m² | - |
| 1777196093 | 15° C | 90% | 1012.5 hPa | 0 mm | - | 0 W/m² | - |
| 1777195790 | 15° C | 90% | 1012.8 hPa | 0 mm | - | 0 W/m² | - |
| 1777195489 | 15° C | 88% | 1012.9 hPa | 0 mm | - | 0 W/m² | - |
| 1777195185 | 15° C | 89% | 1012.7 hPa | 0 mm | - | 0 W/m² | - |
| 1777194881 | 15° C | 89% | 1012.9 hPa | 0 mm | - | 0 W/m² | - |
* Rain latest hour (hover to see other rain measurements)
** Current wind speed in m/s (hover to see current wind gust speed)